• In United Kingdom
  • List of Countries
  • For 7 days
  • Water Temperature
  • Satellite Maps
  • Weather Map
  • Weather Widgets
  • user-avatar
    Login

    Hourly Weather Heredia

    Today, 19 June, Tuesday

    Time Temperature Precipitation Wind Pressure Humidity
    00:00 +18°C° 0 mm 0 mps 663 mmHg 91%
    01:00 +18°C° 0 mm 0 mps 663 mmHg 91%
    02:00 +18°C° 0 mm 0 mps 663 mmHg 91%
    03:00 +17°C° 0 mm 0 mps 662 mmHg 91%
    04:00 +18°C° 0 mm 0 mps 662 mmHg 89%
    05:00 +18°C° 0 mm 0 mps 663 mmHg 88%
    06:00 +18°C° 0 mm 0 mps 663 mmHg 87%
    07:00 +22°C° 0 mm 1 mps 663 mmHg 79%
    08:00 +24°C° 0 mm 1 mps 664 mmHg 72%
    09:00 +26°C° 0 mm 1 mps 665 mmHg 65%
    10:00 +26°C° 0.4 mm 1 mps 665 mmHg 65%
    11:00 +26°C° 0.4 mm 1 mps 665 mmHg 66%
    12:00 +27°C° 0.4 mm 2 mps 664 mmHg 66%
    13:00 +26°C° 2 mm 2 mps 664 mmHg 70%
    14:00 +25°C° 2 mm 1 mps 663 mmHg 74%
    15:00 +24°C° 2 mm 1 mps 663 mmHg 78%
    16:00 +23°C° 2.4 mm 1 mps 662 mmHg 82%
    17:00 +22°C° 2.4 mm 1 mps 662 mmHg 87%
    18:00 +19°C° 2.4 mm 0 mps 662 mmHg 91%
    19:00 +19°C° 0.8 mm 0 mps 663 mmHg 91%
    20:00 +21°C° 0.8 mm 1 mps 663 mmHg 92%
    21:00 +20°C° 0.8 mm 1 mps 664 mmHg 92%
    22:00 +20°C° 0 mm 1 mps 663 mmHg 92%
    23:00 +18°C° 0 mm 0 mps 663 mmHg 91%

    Tomorrow, 20 June, Wednesday

    Time Temperature Precipitation Wind Pressure Humidity
    00:00 +18°C° 0 mm 0 mps 663 mmHg 91%
    01:00 +18°C° 0 mm 0 mps 663 mmHg 91%
    02:00 +18°C° 0 mm 0 mps 662 mmHg 91%
    03:00 +18°C° 0 mm 0 mps 662 mmHg 91%
    04:00 +18°C° 0.1 mm 0 mps 662 mmHg 91%
    05:00 +18°C° 0.1 mm 0 mps 662 mmHg 90%
    06:00 +18°C° 0.1 mm 0 mps 662 mmHg 89%
    07:00 +20°C° 0.1 mm 0 mps 663 mmHg 83%
    08:00 +23°C° 0.1 mm 1 mps 664 mmHg 77%
    09:00 +25°C° 0.1 mm 1 mps 665 mmHg 70%
    10:00 +25°C° 1 mm 1 mps 665 mmHg 71%
    11:00 +25°C° 1 mm 1 mps 664 mmHg 71%
    12:00 +25°C° 1 mm 1 mps 664 mmHg 72%
    13:00 +25°C° 2.2 mm 1 mps 664 mmHg 76%
    14:00 +24°C° 2.2 mm 1 mps 663 mmHg 79%
    15:00 +23°C° 2.2 mm 1 mps 662 mmHg 83%
    16:00 +20°C° 1.9 mm 0 mps 662 mmHg 86%
    17:00 +20°C° 1.9 mm 0 mps 662 mmHg 89%
    18:00 +19°C° 1.9 mm 0 mps 662 mmHg 91%
    19:00 +19°C° 1.4 mm 0 mps 663 mmHg 92%
    20:00 +19°C° 1.4 mm 0 mps 663 mmHg 92%
    21:00 +18°C° 1.4 mm 0 mps 664 mmHg 93%
    22:00 +18°C° 0.8 mm 0 mps 664 mmHg 92%
    23:00 +18°C° 0.8 mm 0 mps 664 mmHg 92%

    Day after tomorrow, 21 June, Thursday

    Time Temperature Precipitation Wind Pressure Humidity
    00:00 +18°C° 0.8 mm 0 mps 663 mmHg 92%
    01:00 +18°C° 0.2 mm 0 mps 663 mmHg 92%
    02:00 +17°C° 0.2 mm 0 mps 663 mmHg 92%
    03:00 +17°C° 0.2 mm 0 mps 662 mmHg 92%
    04:00 +17°C° 0.1 mm 0 mps 663 mmHg 91%
    05:00 +18°C° 0.1 mm 0 mps 663 mmHg 90%
    06:00 +18°C° 0.1 mm 0 mps 663 mmHg 89%
    07:00 +19°C° 0.1 mm 0 mps 664 mmHg 82%
    08:00 +23°C° 0.1 mm 1 mps 665 mmHg 76%
    09:00 +25°C° 0.1 mm 1 mps 665 mmHg 69%
    10:00 +25°C° 0.5 mm 1 mps 665 mmHg 68%
    11:00 +26°C° 0.5 mm 1 mps 665 mmHg 68%
    12:00 +26°C° 0.5 mm 1 mps 665 mmHg 67%
    13:00 +25°C° 1.7 mm 1 mps 664 mmHg 71%
    14:00 +24°C° 1.7 mm 1 mps 664 mmHg 75%
    15:00 +24°C° 1.7 mm 1 mps 663 mmHg 78%
    16:00 +23°C° 3.7 mm 1 mps 663 mmHg 83%
    17:00 +22°C° 3.7 mm 1 mps 663 mmHg 87%
    18:00 +19°C° 3.7 mm 0 mps 663 mmHg 92%
    19:00 +19°C° 3.2 mm 0 mps 663 mmHg 92%
    20:00 +18°C° 3.2 mm 0 mps 664 mmHg 92%
    21:00 +18°C° 3.2 mm 0 mps 664 mmHg 92%
    22:00 +18°C° 1 mm 0 mps 664 mmHg 92%
    23:00 +18°C° 1 mm 0 mps 664 mmHg 92%

    22 June, Friday

    Time Temperature Precipitation Wind Pressure Humidity
    00:00 +18°C° 1 mm 0 mps 663 mmHg 92%
    01:00 +18°C° 0.4 mm 0 mps 663 mmHg 91%
    02:00 +17°C° 0.4 mm 0 mps 663 mmHg 91%
    03:00 +17°C° 0.4 mm 0 mps 662 mmHg 91%
    04:00 +19°C° 0.3 mm 1 mps 662 mmHg 90%
    05:00 +19°C° 0.3 mm 1 mps 663 mmHg 89%
    06:00 +19°C° 0.3 mm 1 mps 663 mmHg 89%
    07:00 +20°C° 0.4 mm 1 mps 663 mmHg 84%
    08:00 +21°C° 0.4 mm 1 mps 664 mmHg 80%
    09:00 +21°C° 0.4 mm 0 mps 665 mmHg 76%
    10:00 +23°C° 0.3 mm 1 mps 665 mmHg 73%
    11:00 +24°C° 0.3 mm 1 mps 665 mmHg 71%
    12:00 +25°C° 0.3 mm 1 mps 665 mmHg 69%
    13:00 +25°C° 0.3 mm 1 mps 664 mmHg 71%
    14:00 +25°C° 0.3 mm 1 mps 664 mmHg 73%
    15:00 +24°C° 0.3 mm 1 mps 663 mmHg 75%
    16:00 +23°C° 0.4 mm 1 mps 663 mmHg 80%
    17:00 +22°C° 0.4 mm 1 mps 663 mmHg 85%
    18:00 +21°C° 0.4 mm 1 mps 663 mmHg 90%
    19:00 +19°C° 0.2 mm 0 mps 663 mmHg 91%
    20:00 +19°C° 0.2 mm 0 mps 664 mmHg 92%
    21:00 +18°C° 0.2 mm 0 mps 664 mmHg 93%
    22:00 +18°C° 0 mm 0 mps 664 mmHg 93%
    23:00 +18°C° 0 mm 0 mps 663 mmHg 92%

    23 June, Saturday

    Time Temperature Precipitation Wind Pressure Humidity
    00:00 +18°C° 0 mm 0 mps 663 mmHg 92%
    01:00 +18°C° 0 mm 0 mps 663 mmHg 91%
    02:00 +17°C° 0 mm 0 mps 662 mmHg 91%
    03:00 +17°C° 0 mm 0 mps 662 mmHg 90%
    04:00 +17°C° 0 mm 0 mps 662 mmHg 89%
    05:00 +17°C° 0 mm 0 mps 662 mmHg 88%
    06:00 +19°C° 0 mm 1 mps 662 mmHg 87%
    07:00 +21°C° 0 mm 1 mps 663 mmHg 79%
    08:00 +23°C° 0 mm 1 mps 664 mmHg 72%
    09:00 +25°C° 0 mm 1 mps 665 mmHg 65%
    10:00 +26°C° 0.1 mm 1 mps 664 mmHg 63%
    11:00 +26°C° 0.1 mm 1 mps 664 mmHg 62%
    12:00 +27°C° 0.1 mm 2 mps 664 mmHg 60%
    13:00 +26°C° 1.1 mm 1 mps 663 mmHg 65%
    14:00 +25°C° 1.1 mm 1 mps 663 mmHg 71%
    15:00 +24°C° 1.1 mm 1 mps 662 mmHg 76%
    16:00 +23°C° 0.9 mm 1 mps 662 mmHg 81%
    17:00 +22°C° 0.9 mm 1 mps 662 mmHg 86%
    18:00 +19°C° 0.9 mm 0 mps 662 mmHg 91%
    19:00 +19°C° 0.3 mm 0 mps 662 mmHg 91%
    20:00 +19°C° 0.3 mm 0 mps 663 mmHg 92%
    21:00 +19°C° 0.3 mm 0 mps 663 mmHg 92%
    22:00 +18°C° 0.1 mm 0 mps 663 mmHg 92%
    23:00 +18°C° 0.1 mm 0 mps 663 mmHg 93%

    24 June, Sunday

    Time Temperature Precipitation Wind Pressure Humidity
    00:00 +18°C° 0.1 mm 0 mps 662 mmHg 93%
    01:00 +18°C° 0 mm 0 mps 662 mmHg 93%
    02:00 +18°C° 0 mm 0 mps 662 mmHg 93%
    03:00 +17°C° 0 mm 0 mps 662 mmHg 93%
    04:00 +18°C° 0 mm 0 mps 662 mmHg 92%
    05:00 +18°C° 0 mm 0 mps 662 mmHg 91%
    06:00 +18°C° 0 mm 0 mps 662 mmHg 90%
    07:00 +19°C° 0 mm 0 mps 663 mmHg 84%
    08:00 +21°C° 0 mm 0 mps 664 mmHg 77%
    09:00 +24°C° 0 mm 1 mps 664 mmHg 71%
    10:00 +25°C° 0.3 mm 1 mps 664 mmHg 70%
    11:00 +25°C° 0.3 mm 1 mps 664 mmHg 69%
    12:00 +26°C° 0.3 mm 1 mps 663 mmHg 68%
    13:00 +25°C° 1.4 mm 1 mps 663 mmHg 71%
    14:00 +25°C° 1.4 mm 1 mps 662 mmHg 73%
    15:00 +24°C° 1.4 mm 1 mps 662 mmHg 76%
    16:00 +23°C° 1.6 mm 1 mps 662 mmHg 81%
    17:00 +22°C° 1.6 mm 1 mps 662 mmHg 86%
    18:00 +19°C° 1.6 mm 0 mps 662 mmHg 91%
    19:00 +19°C° 0.6 mm 0 mps 662 mmHg 91%
    20:00 +18°C° 0.6 mm 0 mps 662 mmHg 92%
    21:00 +18°C° 0.6 mm 0 mps 662 mmHg 93%
    22:00 +18°C° 0.1 mm 0 mps 662 mmHg 93%
    23:00 +18°C° 0.1 mm 0 mps 662 mmHg 92%
    Show more